Weather observations for the past three days for
Albuquerque, Double Eagle II Airport
Metric (Imperial)
Date Time (mdt) Wind (kph) Vis. (km) Weather Sky Cond. Temperature (ºC) Relative Humidity Wind Chill (°C) Heat Index (°C) Pressure Precipitation (cm)
Air Dwpt 6 hour altimeter (cm) sea level (mb) 1 hr 3 hr 6 hr
Max. Min.
08 05:35 Calm 16.09 Fair CLR 7.1 -10.2 28% 76.35 0.0
08 05:15 S 6 16.09 Fair CLR 6.4 -10.1 30% 76.35 0.0
08 04:55 S 6 16.09 Fair CLR 8.9 -10.2 25% 76.35 0.0
08 04:35 Calm 16.09 Fair CLR 6.5 -9.8 30% 76.33 0.0
08 04:15 W 9 16.09 Fair CLR 6.6 -9.9 30% 5 76.33 0.0
08 03:55 NW 7 16.09 Fair CLR 5.8 -10 31% 5 76.3 0.0
08 03:35 NW 11 16.09 Fair CLR 7.6 -10.2 27% 6 76.33 0.0
08 03:15 NW 9 16.09 Fair CLR 10.1 -11 22% 76.3 0.0
08 02:55 Calm 16.09 Fair CLR 11.8 -11.4 19% 76.33 0.0
08 02:35 E 6 16.09 Fair CLR 8.3 -10.9 25% 76.33 0.0
08 02:15 W 9 16.09 Fair CLR 6.7 -11.1 27% 5 76.33 0.0
08 01:55 W 9 16.09 Fair CLR 7.5 -11.7 24% 6 76.33 0.0
08 01:35 NW 13 16.09 Fair CLR 10.5 -12.5 19% 76.35 0.0
08 01:15 W 15 16.09 Fair CLR 8.3 -12 23% 6 76.35 0.0
08 00:55 NW 9 16.09 Fair CLR 8.7 -12 22% 7 76.35 0.0
08 00:35 W 9 16.09 Fair CLR 8.9 -12.1 21% 8 76.35 0.0
08 00:15 W 13 16.09 Fair CLR 9.6 -12.5 20% 8 76.38 0.0
07 23:55 W 13 16.09 Fair CLR 10.4 -12.4 22.4 8.2 19% 76.35 0.0
07 23:35 W 11 16.09 Fair CLR 10.7 -13.1 18% 76.35 0.0
07 23:15 W 13 16.09 Fair CLR 10.4 -13.5 17% 76.38 0.0
07 22:55 SW 17 16.09 Fair CLR 11.2 -13.9 16% 76.35 0.0
07 22:35 W 15 16.09 Fair CLR 12.4 -14.4 14% 76.38 0.0
07 22:15 SW 11 16.09 Fair CLR 9.3 -13 19% 8 76.35 0.0
07 21:55 W 6 16.09 Fair CLR 11.1 -14 16% 76.35 0.0
07 21:35 NW 9 16.09 Fair CLR 12.1 -14.4 14% 76.35 0.0
07 21:15 NW 9 16.09 Fair CLR 14.3 -15.9 11% 76.33 0.0
07 19:49 N 13 16.09 Fair CLR 19 -12 11% 76.25 0.0
07 18:55 SW 13 16.09 Fair CLR 21 -13 9% 76.2 0.0
07 17:50 SW 11 16.09 Fair CLR 22 -13 8% 76.2 0.0
07 16:47 NW 9 16.09 Fair CLR 22 -14 8% 76.28 0.0
07 15:47 NW 9 16.09 Fair CLR 22 -17 6% 76.33 0.0
07 14:50 W 11 16.09 Fair CLR 20 -14 9% 76.4 0.0
07 13:50 W 9 16.09 Fair CLR 19 -12 11% 76.48 0.0
07 12:48 N 7 16.09 Fair CLR 17 -10 15% 76.56 0.0
07 11:48 N 7 16.09 Fair CLR 15 -6 23% 76.63 0.0
07 10:50 N 13 16.09 Fair CLR 13 -6 26% 76.68 0.0
07 09:47 N 11 16.09 Fair CLR 11 -4 35% 76.73 0.0
07 08:50 N 20 16.09 Fair CLR 9 -4 40% 6 76.73 0.0
07 07:47 N 26 16.09 Fair CLR 6 -3 53% 2 76.73 0.0
07 06:50 N 20 16.09 Fair CLR 5 -1 66% 1 76.71 0.0
07 05:50 NW 13 16.09 Fair CLR 3 -2 70% 0 76.68 0.0
07 05:30 N 15 16.09 Fair CLR 2.8 -2.6 68% -1 76.68 0.0
07 05:10 N 15 16.09 Fair CLR 3.4 -3.2 62% 0 76.68 0.0
07 04:50 N 17 16.09 Fair CLR 3.9 -3.8 58% 0 76.68 0.0
07 04:30 N 17 16.09 Fair CLR 4 -5.6 50% 1 76.68 0.0
07 04:10 N 17 16.09 Fair CLR 3.9 -7.5 44% 0 76.68 0.0
07 03:50 N 15 16.09 Fair CLR 3.2 -9 41% -0 76.68 0.0
07 03:30 NW 17 16.09 Fair CLR 4 -9.5 37% 1 76.68 0.0
07 03:10 N 11 16.09 Fair CLR 2.5 -9.4 41% -0 76.68 0.0
07 02:50 NE 11 16.09 Fair CLR 4.1 -9.5 37% 2 76.68 0.0
07 02:30 E 9 16.09 Fair CLR 5 -9.3 35% 3 76.68 0.0
07 02:10 NW 17 16.09 Fair CLR 5.8 -9.2 33% 3 76.63 0.0
07 01:50 NW 17 16.09 Fair CLR 5.3 -9.1 35% 2 76.63 0.0
07 01:30 W 17 16.09 Fair CLR 5 -9.1 36% 2 76.63 0.0
07 01:10 NW 13 16.09 Fair CLR 5.6 -9 34% 3 76.63 0.0
07 00:50 NW 15 16.09 Fair CLR 6.3 -9 33% 4 76.63 0.0
07 00:30 NW 17 16.09 Fair CLR 6.4 -8.7 33% 4 76.63 0.0
07 00:10 NW 7 16.09 Fair CLR 4.7 -8.3 39% 3 76.63 0.0
06 23:50 NW 15 16.09 Fair CLR 7.7 -8.6 15 7.7 31% 5 76.61 0.0
06 23:30 NW 19 16.09 Fair CLR 9 -9 27% 7 76.61 0.0
06 23:10 NW 15 16.09 Fair CLR 9.4 -8.6 27% 7 76.61 0.0
06 22:50 NW 17 16.09 Fair CLR 9.7 -7.5 29% 8 76.58 0.0
06 22:30 NW 17 16.09 Fair CLR 9.5 -5.1 36% 7 76.58 0.0
06 22:10 NW 13 16.09 Fair CLR 9 -2.9 43% 7 76.58 0.0
06 21:50 NW 11 16.09 Fair CLR 9.6 -1.9 45% 8 76.53 0.0
06 21:30 NW 11 16.09 Fair CLR 10.8 -1.8 42% 76.5 0.0
06 21:10 NW 13 16.09 Fair CLR 10.5 -1.6 43% 76.48 0.0
06 20:50 W 9 16.09 Partly Cloudy SCT090 10 -2 43% 9 76.43 0.0
06 19:50 NW 19 16.09 Fair CLR 13 -1 38% 76.38 0.0
06 18:50 NW 28 G 37 16.09 Partly Cloudy SCT070 SCT110 14 0 39% 76.33 0.0
06 17:50 NW 30 G 59 16.09 Light Rain SCT022 BKN070 BKN090 15 0 36% 76.28 0.0
06 16:50 NW 35 G 44 16.09 Overcast and Breezy SCT090 OVC110 17 -2 27% 76.15 0.0
06 15:50 SW 17 G 39 16.09 Light Rain SCT027 BKN090 OVC110 18 -1 28% 76.12 0.0
06 14:50 SW 28 G 39 16.09 Mostly Cloudy BKN110 20 -3 21% 76.15 0.0
06 13:47 W 26 G 37 16.09 Mostly Cloudy BKN100 18 -3 24% 76.15 0.0
06 12:50 SW 9 G 43 16.09 Partly Cloudy SCT060 SCT080 16 -2 29% 76.2 0.0
06 11:47 W 17 16.09 Partly Cloudy SCT060 SCT070 15 -1 34% 76.25 0.0
06 10:47 W 13 16.09 Fair CLR 13 -1 38% 76.28 0.0
06 09:47 SW 22 16.09 Fair CLR 11 -1 44% 76.25 0.0
06 08:47 SW 22 16.09 Fair CLR 9 -1 50% 6 76.28 0.0
06 07:47 SW 20 16.09 A Few Clouds FEW070 8 0 57% 5 76.28 0.0
06 06:47 S 15 16.09 Mostly Cloudy BKN050 5 0 70% 2 76.25 0.0
06 05:30 SW 13 16.09 Fair CLR 3 -0.6 77% 0 76.17 0.0
06 05:10 SW 15 16.09 Fair CLR 3 -0.2 80% -0 76.17 0.0
06 04:50 SW 11 16.09 Fair CLR 3.1 -0.1 80% 0 76.17 0.0
06 04:30 SW 13 16.09 Fair CLR 4 0 75% 1 76.17 0.0
06 04:10 SW 15 16.09 Fair CLR 3.9 0 76% 1 76.15 0.0
06 03:50 SW 15 16.09 Fair CLR 3.6 0.1 78% 0 76.15 0.0
06 03:30 SW 11 16.09 Fair CLR 3.6 0.2 79% 1 76.15 0.0
06 03:10 SW 15 16.09 Fair CLR 2.7 0.2 84% -1 76.12 0.0
06 02:50 W 9 16.09 Fair CLR 3.8 0.2 78% 2 76.12 0.0
06 02:30 Calm 16.09 Fair CLR 4.8 0.8 76% 76.15 0.0
06 02:10 SW 13 16.09 Fair CLR 3.7 0.7 81% 1 76.15 0.0
06 01:50 SW 6 16.09 Fair CLR 5.1 1.1 76% 76.15 0.0
06 01:30 SE 7 16.09 Fair CLR 5 1.2 77% 4 76.15 0.0
06 01:10 Calm 16.09 Fair CLR 4.3 1.2 81% 76.17 0.0
06 00:50 Calm 16.09 Fair CLR 5.6 1.8 77% 76.17 0.0
06 00:30 SW 11 16.09 Fair CLR 5.6 1.8 77% 3 76.17 0.0
06 00:10 W 11 16.09 Fair CLR 6.6 1.9 72% 5 76.15 0.0
05 23:50 W 11 16.09 Partly Cloudy SCT090 6.8 2.1 14.3 6.8 72% 5 76.15 0.0
05 23:30 W 9 16.09 Mostly Cloudy SCT055 BKN090 7.5 2.6 71% 6 76.12 0.0
05 23:10 Calm 16.09 Overcast BKN055 OVC090 7.3 2.7 73% 76.15 0.0
05 22:50 Calm 16.09 Mostly Cloudy BKN090 BKN110 7.1 2.2 71% 76.15 0.0
05 22:30 Calm 16.09 Partly Cloudy SCT110 8.5 2.5 66% 76.12 0.0
05 22:10 NW 9 16.09 Fair CLR 9 2.5 64% 8 76.1 0.0
05 21:50 NW 20 16.09 Fair CLR 9.2 3 65% 7 76.1 0.0
05 21:30 NW 20 16.09 Partly Cloudy SCT060 SCT070 SCT085 9.6 2.8 63% 7 76.07 0.0
05 21:10 NW 17 16.09 Mostly Cloudy BKN060 BKN075 BKN095 9.4 3.4 66% 7 76.07 0.0
05 19:45 W 13 16.09 Mostly Cloudy SCT085 BKN100 12 4 58% 75.9 0.0
05 16:45 NW 19 16.09 Fair CLR 15 4 48% 75.87 0.0
05 12:47 W 13 16.09 Showers in Vicinity OVC036 12 3 54% 76.05 0.0
05 12:18 W 9 16.09 Overcast BKN060 OVC080 12 3 54% 76.05 0.0
05 09:47 NW 31 16.09 Overcast SCT060 OVC070 10 4 67% 7 76.05 0.0
05 08:50 NW 17 16.09 Overcast BKN046 OVC050 10 4 67% 8 76.1 0.0
05 07:47 W 15 16.09 Overcast SCT060 OVC070 12 -1 41% 76.1 0.0
05 06:47 W 11 16.09 Mostly Cloudy BKN090 12 -1 41% 76.02 0.0
Date Time (mdt) Wind (kph) Vis. (km) Weather Sky Cond. Air Dwpt Max. Min. Relative Humidity Wind Chill (°C) Heat Index (°C) altimeter (cm) sea level (mb) 1 hr 3 hr 6 hr
6 hour
Temperature (ºC) Pressure Precipitation (cm)